ONEWEB-0206, 48227

Orbit data source: Space-Track

ONEWEB-0206, 48227 is a payload satellite owned by One Web (NAA) (UK) in LEO that was launched on Sun, 25 Apr 2021 UTC via a SOYUZ-2-1B launch vehicle from the Vostochny Cosmodrome (VOSTO). Payload-class satellites include a variety of spacecraft equipped with specific instruments for various scientific and technological missions. These include communications satellites like Starlink; space stations such as the ISS; scientific satellites like the Hubble; Earth observation satellites from companies like Planet Labs, Umbra, and HawkEye 360; GPS; miniature CubeSats for education and research; and military/defense satellites.

Loading next visibility...
Identifier
48227, 2021-031T
Orbit
LEO
Country
Flag of UKUK
Related business
Manufacturer
One Web
Mission
Operational Commercial Communications
Bus & Motor
ARROW, Unknown motor
Mass
148 kg wet, ~140 kg dry
Launch date (UTC)
2021-04-25 (5 years ago)
Launch vehicle
SOYUZ-2-1B
Launch site
Vostochny Cosmodrome (VOSTO)
Object type
Payload
Rocket body
Debris
Shape & HBR
Trap Box + 2 Pan, 6.7 m
Radar Cross Section
3.464 m², Large (>1 m²)

Expand to show TLE details & history
Last TLE update: 9 hours ago

TLE from 9 hours ago
0 ONEWEB-0206
1 48227U 21031T   26095.26609282  .00000851  00000-0  22599-2 0  9990
2 48227  87.8943 304.2512 0001687  94.9613 265.1709 13.14500806238646
Epoch: 2026-04-05T06:23Z
TLE epoch observation values (Epoch: 2026-04-05T06:23:10.419Z)
Latitude
-0.00006°
Longitude
14.8838°
Altitude
1,208.8 km
Speed
7.25 km/s
True Right ascension
20h 17m 00s
True Declination
0° 00' 00"
Sunlit
Object was in daylight at epoch
Visualization orbit readout
Latitude
Unknown
Longitude
Unknown
Altitude
Unknown
Speed
Unknown
Apparent Right ascension
Unknown
Apparent Declination
Unknown
Sunlit
N/A
Visualization observer readout
Local Sidereal Time
21:29:25
Azimuth
Unknown
Elevation
Unknown
Doppler factor
Unknown
Orbital elements
Apogee altitude
1,204.191 km
Perigee altitude
1,201.633 km
Semi-major axis
7,581.049 km
Eccentricity
0.00017
Inclination
87.8943°
RAAN
304.2512°
Arg. of periapsis
94.9613°
True anomaly
265.15164°
Mean anomaly
265.1709°
Eccentric anomaly
265.16127°
Mean motion
3.28813 °/min
Orbital period
109.48 mins
BSTAR
0.0022599
Loading maneuver chart data...
Computing Atmospheric mass density...
Loading historical data...
Loading historical data...
Loading historical data...
Loading historical data...
Loading historical data...
Loading historical data...
Loading historical data...

Documentation

Showing up to 5 results
|